COSMOS 1525

Satellite information

Favourite Embed

Satellite Type and Status

PAYLOADIN ORBIT

Key statistics

Satellite COSMOS 1525 at a glance.

Uptime

15102

Days in orbit

Revolutions

≈ 12.5

Per day

Orbit

LEO

Low Earth Orbit

Inclination

74.0

Latest

Satellite identification and parameters

Extended collection of information and parameters for COSMOS 1525.

Object identification

Identified? True

Debris? False

Object name: COSMOS 1525

International designator: 1984-001D

Object number (NORAD): 14614

Object ID (CCSDS): 14614

Country: COMMONWEALTH OF INDEPENDENT STATES (CIS)

Current information (Y/N): Y

RCS size: MEDIUM

Orbital parameters

Period: 114.75 minutes

Inclination: 74.0073 deg

SMA: 7822.189 km

Apoapsis: 1461.411 km

Periapsis: 1426.697 km

RAAN: 301.2165 deg

Eccentricy: 0.0022189

Argument of periapsis: 269.7079 deg

Mean anomaly: 259.644 deg

Mean motion: 12.5490344 rev/day

Mean motion (dot): -0.0000001 rev/day2

B* drag term: 0.000042002 1/REarth

Two-line elements (TLE)

Creation date: May 11, 2025, 2:40 a.m.

Reference frame: TEME

Reference center: EARTH

Epoch: May 10, 2025, 11:11 p.m. UTC

TLE line 0: 0 COSMOS 1525

TLE line 1: 1 14614U 84001D 25130.96642644 -.00000010 00000-0 42002-4 0 9995

TLE line 2: 2 14614 74.0073 301.2165 0022189 269.7079 259.6440 12.54903440893988

Live tracking on map

Real-time ground track for satellite COSMOS 1525.

In-orbit conjunctions

There are no conjunctions computed for COSMOS 1525, at the moment. Check back to stay up to date, as we update our databases every day.

Go to all conjunctions

Associated space launch

Military communications satellites

COSMOS 1525 was lifted into orbit during the mission ‘Kosmos-3M | Strela-1M 273-280’, on board a Kosmos-3M space rocket.

The launch took place on Jan. 5, 1984, 8:09 p.m. from 132/2.

For more information about the launch, click the button.

Launch to space Kosmos-3M | Strela-1M 273-280
Kosmos-3M | Strela-1M 273-280

Agency: N/A

Status: Launch Successful

Launch date: Jan. 5, 1984, 8:09 p.m. UTC

Rocket: Kosmos-3M

Launch pad: 132/2

Location: Plesetsk Cosmodrome, Russian Federation

...

Latest news about this satellite

There are no fresh news available about this satellite. Check back as we update our databases every day.


Newsletter sign-up

Weekly statistics, charts and insights to help you stay on top of the space industry.